Location: Pian di Sc�
(43.6333°N, 11.5500°E)
Time: 18:02:21
(UTC+00:00)

CZ-4B R/B - Pass Details

Date: 07 August 2020
Orbit: 702 x 803 km, 98.9° (Epoch: 18 September)

Event Time Altitude Azimuth Distance (km) Brightness Sun altitude
Rises 00:57:25 0° 19° (NNE) 3,120 8.0 -26.0°
Reaches altitude 10° 00:59:47 10° 26° (NNE) 2,188 6.9 -25.8°
Maximum altitude 01:04:23 47° 100° (E) 932 4.0 -25.4°
Enters shadow 01:04:55 45° 121° (ESE) 959 3.9 -25.4°
